DW2802 Ogijares ES current weather conditions

sailwx.info

Wind from 263

Air temperature 13.9° C
Dewpoint 9.3° C

Last reported at 2016-May-06 00:43 UTC.
Time now 2016-May-06 01:41 UTC

Location: N 37°07' W 003°36'.
View on Google Maps.

See reports from other nearby stations

  
Tides and Currents Weather Stations Pressure Air Temp Water Temp Dewpoint Dewpoint Depression Visibility Wind Speed Wind Dir Waves Ship Positions
date/time (UTC)wind fromknots sea level pressurealtimeterstation pressurevisibilityair tempwater tempwave heightnotes
2016-May-06 00:43 263 13.9
2016-May-06 00:28 187 0 gusting 9 13.3
2016-May-06 00:12 161 6 gusting 12 12.8
2016-May-05 23:57 150 5 gusting 9 12.8
2016-May-05 23:42 190 4 gusting 10 12.8
2016-May-05 23:27 167 7 gusting 11 12.2
2016-May-05 23:12 171 8 gusting 13 12.8
2016-May-05 22:57 169 8 gusting 15 12.8
2016-May-05 22:42 180 9 gusting 14 13.9
2016-May-05 22:27 166 9 gusting 12 14.4
2016-May-05 22:12 157 7 gusting 13 14.4
2016-May-05 21:57 143 6 gusting 14 14.4
2016-May-05 21:42 173 9 gusting 13 15.0
2016-May-05 21:27 136 9 gusting 15 15.0
2016-May-05 21:12 156 5 gusting 11 16.1
2016-May-05 20:57 199 2 gusting 6 16.1
2016-May-05 20:42 226 16.1
2016-May-05 20:27 227 16.1
2016-May-05 20:12 227 16.1
2016-May-05 19:57 217 1 gusting 3 16.7
2016-May-05 19:42 216 1 gusting 4 17.2
2016-May-05 19:27 210 2 gusting 6 17.2
2016-May-05 19:12 197 3 gusting 6 17.8
2016-May-05 18:57 225 2 gusting 7 18.3
2016-May-05 18:42 209 0 gusting 6 18.9
2016-May-05 18:27 188 4 gusting 8 19.4
2016-May-05 18:12 200 20.0
2016-May-05 17:57 206 4 gusting 12 20.0
2016-May-05 17:42 192 2 gusting 7 20.0
2016-May-05 17:27 211 2 gusting 6 20.0
2016-May-05 17:12 186 2 gusting 10 20.0
2016-May-05 16:57 206 5 gusting 8 20.0
2016-May-05 16:42 196 6 gusting 12 20.0
2016-May-05 16:27 207 6 gusting 13 18.9
2016-May-05 16:12 157 7 gusting 16 18.3
2016-May-05 15:57 156 8 gusting 20 18.3
2016-May-05 15:42 150 7 gusting 12 19.4
2016-May-05 15:27 185 6 gusting 11 19.4
2016-May-05 15:12 203 5 gusting 16 19.4
2016-May-05 14:57 186 4 gusting 13 19.4
2016-May-05 14:42 182 5 gusting 9 20.0
2016-May-05 14:27 213 6 gusting 13 20.0
2016-May-05 14:12 164 6 gusting 12 20.6
2016-May-05 13:57 153 6 gusting 13 20.0
2016-May-05 13:42 329 1 gusting 6 20.0
2016-May-05 13:27 244 19.4
2016-May-05 13:12 210 18.9
2016-May-05 12:57 120 17.8
2016-May-05 12:42 251 16.7
2016-May-05 12:26 252 1 gusting 4 17.2
2016-May-05 12:11 248 16.7
2016-May-05 11:56 248 1 gusting 4 16.7
2016-May-05 11:41 053 17.2
2016-May-05 11:26 064 0 gusting 8 16.7
2016-May-05 11:11 016 3 gusting 8 16.1
2016-May-05 10:56 288 0 gusting 6 14.4
2016-May-05 10:41 293 2 gusting 6 13.9
2016-May-05 10:26 340 1 gusting 5 13.3
2016-May-05 10:11 038 3 gusting 6 12.8
2016-May-05 09:56 142 12.2
2016-May-05 09:41 142 0 gusting 8 11.7
2016-May-05 09:26 155 6 gusting 9 12.8
2016-May-05 09:11 142 8 gusting 12 13.9
2016-May-05 08:56 138 6 gusting 13 13.9
2016-May-05 08:41 152 6 gusting 13 14.4
2016-May-05 08:26 140 6 gusting 13 14.4
2016-May-05 08:11 140 4 gusting 8 15.0
2016-May-05 07:56 291 15.6
2016-May-05 07:41 291 15.6
2016-May-05 07:26 291 15.6
2016-May-05 07:11 291 15.6
2016-May-05 06:56 291 15.0
2016-May-05 06:41 211 15.0
2016-May-05 06:26 211 15.0
2016-May-05 06:11 211 14.4
2016-May-05 05:56 211 1 gusting 4 14.4
2016-May-05 05:41 212 3 gusting 6 14.4
2016-May-05 05:26 041 15.0
2016-May-05 05:11 041 0 gusting 4 15.6
2016-May-05 04:56 040 15.6
2016-May-05 04:41 040 0 gusting 3 15.0
2016-May-05 04:25 040 2 gusting 5 15.0
2016-May-05 04:10 040 1 gusting 5 15.6
2016-May-05 04:00 032 15.6
2016-May-05 03:40 213 15.6
2016-May-05 03:30 207 15.0
2016-May-05 03:10 207 15.0
2016-May-05 02:55 207 15.0
2016-May-05 02:40 207 15.0
2016-May-05 02:27 207 15.0
2016-May-05 02:14 207 15.0
2016-May-05 01:57 233 1 gusting 4 15.0
2016-May-05 01:40 316 15.6
2016-May-05 01:25 317 15.6
2016-May-05 01:10 317 16.1
2016-May-05 00:55 317 16.1
2016-May-05 00:40 306 2 gusting 5 16.1
2016-May-05 00:25 217 16.1
2016-May-05 00:10 217 16.1
2016-May-04 23:55 217 16.1
2016-May-04 23:40 217 16.7
2016-May-04 23:25 217 16.7
2016-May-04 23:10 217 16.7
2016-May-04 22:55 217 16.7
2016-May-04 22:40 217 16.7
2016-May-04 22:25 217 16.7
2016-May-04 22:10 269 0 gusting 6 16.7
2016-May-04 21:55 333 2 gusting 7 17.2
2016-May-04 21:40 019 0 gusting 2 17.8
2016-May-04 21:25 045 1 gusting 3 17.8
2016-May-04 21:10 054 1 gusting 5 18.3
2016-May-04 20:55 153 1 gusting 12 18.3
2016-May-04 20:40 141 6 gusting 12 18.3
2016-May-04 20:25 140 0 gusting 6 18.9
2016-May-04 20:10 148 18.3
2016-May-04 19:55 281 0 gusting 2 18.9
2016-May-04 19:40 019 19.4
2016-May-04 19:25 057 19.4
2016-May-04 19:12 057 19.4
2016-May-04 18:55 057 20.0
2016-May-04 18:40 057 20.0
2016-May-04 18:25 057 0 gusting 4 20.0
2016-May-04 18:09 056 1 gusting 5 20.6
2016-May-04 17:54 038 4 gusting 6 20.6
2016-May-04 17:39 234 0 gusting 3 20.6
2016-May-04 17:24 232 20.6
2016-May-04 17:09 232 1 gusting 4 21.1
2016-May-04 16:54 346 0 gusting 5 21.7
2016-May-04 16:39 150 21.7
2016-May-04 16:24 117 0 gusting 2 22.2
2016-May-04 16:09 084 0 gusting 5 21.7
2016-May-04 15:54 142 1 gusting 10 21.7
2016-May-04 15:39 145 5 gusting 12 21.1
2016-May-04 15:24 143 5 gusting 13 21.1
2016-May-04 15:09 173 8 gusting 16 20.6
2016-May-04 14:54 167 9 gusting 15 21.1
2016-May-04 14:39 180 6 gusting 15 22.2
2016-May-04 14:24 209 4 gusting 8 23.9
2016-May-04 14:09 162 5 gusting 8 23.3
2016-May-04 13:56 154 6 gusting 12 23.3
2016-May-04 13:40 194 3 gusting 10 23.3
2016-May-04 13:24 226 6 gusting 11 24.4
2016-May-04 13:09 151 4 gusting 10 24.4
2016-May-04 12:54 157 3 gusting 10 24.4
2016-May-04 12:39 131 6 gusting 12 25.0
2016-May-04 12:24 246 1 gusting 7 25.0
2016-May-04 12:09 325 25.0
2016-May-04 11:54 318 1 gusting 8 25.6
2016-May-04 11:39 234 25.6
2016-May-04 11:24 234 24.4
2016-May-04 11:09 234 23.3
2016-May-04 10:54 251 2 gusting 4 23.3
2016-May-04 10:39 036 24.4
2016-May-04 10:24 355 0 gusting 5 23.9
2016-May-04 10:09 017 23.3
2016-May-04 09:54 047 0 gusting 4 22.8
2016-May-04 09:39 040 22.2
2016-May-04 09:24 022 1 gusting 5 21.7
2016-May-04 09:11 058 20.6
2016-May-04 08:56 058 19.4
2016-May-04 08:38 033 0 gusting 5 18.9
2016-May-04 08:23 034 0 gusting 4 18.3
2016-May-04 08:09 346 1 gusting 3 17.2
2016-May-04 07:53 313 1 gusting 5 16.1
2016-May-04 07:38 239 16.1
2016-May-04 07:23 169 16.7
2016-May-04 07:08 169 17.2
2016-May-04 06:55 169 16.7
2016-May-04 06:38 169 15.0
2016-May-04 06:23 169 13.9
2016-May-04 06:08 169 13.3
2016-May-04 05:53 169 2 gusting 4 12.8
2016-May-04 05:39 169 12.8
2016-May-04 05:23 174 12.8
2016-May-04 05:08 184 12.8
2016-May-04 04:53 184 1 gusting 3 12.2
2016-May-04 04:38 184 12.2
2016-May-04 04:23 184 12.8
2016-May-04 04:08 184 12.2
2016-May-04 03:53 186 12.2
2016-May-04 03:40 186 12.8
2016-May-04 03:23 186 12.2
2016-May-04 03:10 186 12.8
2016-May-04 02:53 186 12.8
2016-May-04 02:38 186 13.3
2016-May-04 02:23 186 13.3
2016-May-04 02:08 186 13.3
2016-May-04 01:53 186 13.9
2016-May-04 01:37 186 14.4
2016-May-04 01:22 186 14.4
2016-May-04 01:07 186 14.4